[[{"header":{"parameterUnit":"m.s-1","parameterCategory":1,"la1":30.2991,"la2":30.254,"lo1":-89.0895,"lo2":-89.0444,"dy":0.0017,"dx":0.0017,"nx":28,"ny":28,"refTime":"2025-01-20T03:00:00:Z","depth":0,"parameterNumber":2,"parameterNumberName":"U-component_of_WINDS"},"data":[0,0,0,0,0,0,0,0,0,0,0,0,0,0,0,0,0,0,0,0,0,0,0,0,0,0,0,0,0,0,0,0,0,0,0,0,0,0,0,0,0,0,0,0,0,0,0,0,0,0,0,0,0,0,0,0,0,0,-1.8526,-1.8527,0,-1.8612,-1.8613,-1.8614,-1.8564,-1.8562,-1.8559,-1.8557,-1.8647,-1.8651,-1.8656,0,0,0,0,0,0,0,0,0,0,0,0,0,-1.832,-1.8324,-1.8526,-1.8527,-1.8528,-1.8612,-1.8613,-1.8614,-1.8565,-1.8562,-1.8559,-1.8556,-1.8645,-1.8651,-1.8656,0,0,0,0,0,0,0,0,0,0,0,0,0,-1.8408,-1.8325,-1.8526,-1.8514,-1.8513,-1.8611,-1.8613,-1.8614,-1.8565,-1.8562,-1.8558,-1.8555,-1.8643,-1.865,-1.8657,-1.8772,0,0,-1.8678,-1.8681,0,0,0,0,0,0,0,0,-1.8403,-1.8416,-1.8514,-1.8515,-1.8515,-1.8574,-1.8573,-1.8667,-1.8566,-1.8546,-1.8557,-1.8553,-1.8625,-1.8634,-1.8658,-1.8777,-1.878,-1.8679,-1.8683,-1.8686,-1.8688,0,0,0,0,0,0,0,-1.8397,-1.8412,-1.856,-1.8516,-1.8516,-1.8504,-1.8512,-1.8591,-1.8605,-1.8547,-1.8544,-1.8554,-1.8625,-1.8651,-1.8659,-1.8782,-1.8679,-1.8685,-1.8689,-1.8692,-1.8998,-1.9002,0,0,0,0,0,0,-1.8392,-1.8407,-1.8557,-1.8563,-1.8449,-1.851,-1.852,-1.8558,-1.8604,-1.8607,-1.8557,-1.8552,-1.8641,-1.8651,-1.8662,-1.88,-1.8686,-1.8692,-1.8696,-1.8994,-1.8999,-1.9003,0,0,0,0,0,0,-1.8387,-1.8405,-1.8554,-1.8484,-1.8502,-1.8518,-1.8561,-1.8562,-1.8588,-1.8612,-1.8614,-1.8582,-1.8639,-1.8653,-1.8745,-1.8803,-1.8696,-1.8702,-1.899,-1.8996,-1.9001,-1.9078,0,0,0,0,0,0,-1.8382,-1.8404,-1.8449,-1.8485,-1.8506,-1.8636,-1.8565,-1.8566,-1.86,-1.8594,-1.8635,-1.8639,-1.8637,-1.8735,-1.8752,-1.881,-1.8707,-1.8985,-1.8992,-1.8999,-1.907,-1.9085,-1.9099,0,0,0,0,0,-1.8374,-1.8467,-1.8451,-1.847,-1.8561,-1.8639,-1.8651,-1.8646,-1.8605,-1.865,-1.8664,-1.8637,-1.8793,-1.8745,-1.8764,-1.8825,-1.8981,-1.899,-1.8999,-1.9064,-1.9082,-1.9098,0,0,0,0,0,0,-1.8438,-1.8472,-1.8454,-1.8562,-1.8598,-1.863,-1.8687,-1.8666,-1.8715,-1.8707,-1.87,-1.871,-1.8806,-1.8824,-1.877,-1.8938,-1.8881,-1.8894,-1.8923,-1.8941,-1.8955,-1.895,-1.8713,0,0,0,0,0,-1.8465,-1.8525,-1.8551,-1.8643,-1.8662,-1.8671,-1.8705,-1.8698,-1.8735,-1.875,-1.8772,-1.8809,-1.8866,-1.8905,-1.8959,-1.9071,-1.908,-1.9123,-1.9137,-1.9148,-1.9161,-1.9221,-1.924,-1.9033,-1.9033,-1.9033,0,0,-1.852,-1.8546,-1.8585,-1.8656,-1.8683,-1.8746,-1.8684,-1.8753,-1.8799,-1.8761,-1.885,-1.8866,-1.8907,-1.901,-1.9057,-1.9029,-1.9219,-1.916,-1.9169,-1.9175,-1.9232,-1.9252,-1.9269,-1.9039,-1.9038,-1.9037,0,0,-1.8654,-1.8679,-1.8758,-1.8786,-1.8827,-1.8832,-1.8851,-1.8887,-1.8896,-1.8985,-1.8957,-1.9011,-1.911,-1.914,-1.9169,-1.9311,-1.9288,-1.9328,-1.9404,-1.9463,-1.9479,-1.9493,-1.9544,-1.9563,-1.934,-1.934,-1.934,0,-1.8718,-1.8811,-1.8802,-1.8873,-1.8905,-1.8871,-1.8951,-1.8979,-1.9036,-1.9059,-1.9026,-1.9148,-1.9174,-1.9283,-1.9317,-1.9341,-1.9362,-1.9325,-1.9477,-1.9492,-1.9505,-1.9554,-1.9573,-1.9345,-1.9344,-1.9344,-1.9343,0,-1.8888,-1.8952,-1.9011,-1.9066,-1.9105,-1.918,-1.9182,-1.9222,-1.9211,-1.922,-1.9309,-1.9338,-1.9397,-1.9422,-1.9412,-1.953,-1.9511,-1.9478,-1.942,-1.953,-1.9575,-1.9594,-1.9351,-1.935,-1.9348,-1.9347,0,0,-1.9067,-1.9114,-1.9136,-1.916,-1.9202,-1.9251,-1.9324,-1.9381,-1.9415,-1.9455,-1.9516,-1.9599,-1.9568,-1.96,-1.9593,-1.9645,-1.9755,-1.9605,-1.9606,-1.9633,-1.9886,-1.9912,-1.9933,-1.9739,-1.9742,-1.9745,-1.9883,0,-1.9204,-1.9331,-1.9324,-1.9444,-1.9503,-1.947,-1.9533,-1.9566,-1.9575,-1.9626,-1.9636,-1.9695,-1.965,-1.9669,-1.9718,-1.9731,-1.9806,-1.9721,-1.9796,-1.9799,-1.9789,-1.9957,-1.9985,-2.0114,-1.99,-1.9903,-1.9905,0,-1.9381,-1.9426,-1.9551,-1.9582,-1.9607,-1.9664,-1.9715,-1.9764,-1.9799,-1.9802,-1.9837,-1.9821,-1.9894,-1.9832,-1.9933,-1.9875,-1.9905,-1.9915,-1.992,-1.9929,-1.986,-1.9971,-2.0154,-2.0174,-1.9933,-1.9931,-1.9929,0,-1.95,-1.9591,-1.9678,-1.9699,-1.9738,-1.9779,-1.9797,-1.9828,-1.9862,-1.9906,-1.9928,-1.9979,-2.0008,-2.0049,-2.0047,-2.0002,-2.0149,-2.0087,-2.0154,-2.0154,-2.0188,-2.0186,-2.038,-2.0205,-2.0205,-2.0204,-2.0204,0,-1.9655,-1.9733,-1.9732,-1.9785,-1.9871,-1.9861,-1.9947,-1.996,-1.9988,-2.0044,-2.0018,-2.007,-2.0064,-2.0116,-2.0115,-2.0198,-2.0211,-2.0216,-2.0215,-2.0219,-2.0219,-2.024,-2.0232,-2.0209,-2.0208,-2.0207,-2.0206,0,-1.9804,-1.9806,-1.9898,-1.9926,-1.9935,-1.9997,-2.0021,-2.0071,-2.0077,-2.0147,-2.0163,-2.0172,-2.0232,-2.0233,-2.0303,-2.0302,-2.0404,-2.0392,-2.0392,-2.039,-2.0457,-2.0451,-2.0673,-2.0701,-2.0506,-2.0508,-2.051,0,-1.9903,-1.9962,-1.9996,-2.0031,-2.0051,-2.0107,-2.0141,-2.0133,-2.0169,-2.0213,-2.0258,-2.0315,-2.0361,-2.0459,-2.0472,-2.0524,-2.0514,-2.0588,-2.0522,-2.0524,-2.0516,-2.0513,-2.0519,-2.0602,-2.0604,-2.0605,-2.0607,0,-2.008,-2.0077,-2.0127,-2.0177,-2.0218,-2.0257,-2.0293,-2.0323,-2.0318,-2.036,-2.0421,-2.0456,-2.0526,-2.0583,-2.0634,-2.0652,-2.0629,-2.0627,-2.0645,-2.0651,-2.0649,-2.0652,-2.0429,-2.0623,-2.0621,-2.062,-2.0619,-2.0618,-2.0207,-2.0258,-2.0289,-2.0345,-2.0371,-2.0405,-2.0453,-2.0464,-2.0514,-2.057,-2.0561,-2.0629,-2.0661,-2.0726,-2.0748,-2.0801,-2.0775,-2.0802,-2.0809,-2.0816,-2.0823,-2.0639,-2.081,-2.0809,-2.0809,-2.0808,-2.0808,0,-2.0383,-2.0401,-2.0452,-2.0503,-2.0546,-2.0519,-2.0557,-2.0596,-2.0655,-2.0687,-2.0731,-2.0801,-2.0855,-2.0871,-2.0924,-2.0963,-2.0954,-2.0977,-2.0975,-2.098,-2.0843,-2.0822,-2.0984,-2.0984,-2.0984,-2.0984,-2.0984,-2.0984,-2.048,-2.0564,-2.0565,-2.0661,-2.0678,-2.0744,-2.0768,-2.0798,-2.0823,-2.0901,-2.0946,-2.0956,-2.0981,-2.1035,-2.1084,-2.1087,-2.1108,-2.1136,-2.1135,-2.1007,-2.099,-2.0973,-2.0953,-2.114,-2.1141,-2.1268,-2.1269,-2.127]},{"header":{"parameterUnit":"m.s-1","parameterCategory":1,"la1":30.2991,"la2":30.254,"lo1":-89.0895,"lo2":-89.0444,"dy":0.0017,"dx":0.0017,"nx":28,"ny":28,"refTime":"2025-01-20T03:00:00:Z","depth":0,"parameterNumber":3,"parameterNumberName":"V-component_of_WINDS"},"data":[0,0,0,0,0,0,0,0,0,0,0,0,0,0,0,0,0,0,0,0,0,0,0,0,0,0,0,0,0,0,0,0,0,0,0,0,0,0,0,0,0,0,0,0,0,0,0,0,0,0,0,0,0,0,0,0,0,0,-7.1304,-7.1305,0,-7.1445,-7.1447,-7.1448,-7.1359,-7.1355,-7.1351,-7.1347,-7.1488,-7.1496,-7.1503,0,0,0,0,0,0,0,0,0,0,0,0,0,-7.0951,-7.0958,-7.1303,-7.1305,-7.1307,-7.1445,-7.1447,-7.1449,-7.136,-7.1355,-7.1349,-7.1345,-7.1486,-7.1495,-7.1504,0,0,0,0,0,0,0,0,0,0,0,0,0,-7.1099,-7.096,-7.1303,-7.1279,-7.1278,-7.1445,-7.1447,-7.1449,-7.1361,-7.1354,-7.1348,-7.1342,-7.1483,-7.1494,-7.1505,-7.1702,0,0,-7.154,-7.1545,0,0,0,0,0,0,0,0,-7.1091,-7.1112,-7.1281,-7.1281,-7.1281,-7.1378,-7.1374,-7.1534,-7.1362,-7.1329,-7.1346,-7.1339,-7.1456,-7.147,-7.151,-7.1708,-7.1714,-7.1541,-7.1548,-7.1553,-7.1557,0,0,0,0,0,0,0,-7.1081,-7.1106,-7.1359,-7.1283,-7.1283,-7.126,-7.1274,-7.1404,-7.1426,-7.1332,-7.1326,-7.1344,-7.1455,-7.1499,-7.1513,-7.1716,-7.1541,-7.1551,-7.1558,-7.1563,-7.2081,-7.2087,0,0,0,0,0,0,-7.1073,-7.1098,-7.1355,-7.1364,-7.1169,-7.1271,-7.1287,-7.1353,-7.1425,-7.143,-7.1349,-7.1339,-7.1482,-7.1499,-7.1517,-7.1751,-7.1553,-7.1564,-7.1571,-7.2074,-7.2082,-7.2089,0,0,0,0,0,0,-7.1066,-7.1097,-7.1349,-7.1229,-7.1259,-7.1284,-7.1359,-7.1359,-7.1403,-7.1438,-7.1441,-7.139,-7.1478,-7.1501,-7.1656,-7.1754,-7.1569,-7.158,-7.2066,-7.2076,-7.2086,-7.222,0,0,0,0,0,0,-7.1056,-7.1095,-7.1171,-7.1232,-7.1266,-7.1488,-7.1365,-7.1366,-7.1424,-7.1412,-7.1477,-7.1482,-7.1475,-7.164,-7.1668,-7.1767,-7.1589,-7.2057,-7.207,-7.2083,-7.2207,-7.2234,-7.2257,0,0,0,0,0,-7.1044,-7.1203,-7.1175,-7.1207,-7.1362,-7.1494,-7.1513,-7.1503,-7.1432,-7.1508,-7.153,-7.148,-7.1739,-7.1656,-7.1687,-7.1791,-7.2051,-7.2067,-7.2082,-7.2196,-7.2229,-7.2256,0,0,0,0,0,0,-7.1153,-7.1211,-7.1181,-7.1364,-7.1425,-7.1478,-7.1574,-7.1538,-7.162,-7.1605,-7.1588,-7.1603,-7.1765,-7.1793,-7.17,-7.1984,-7.1883,-7.1906,-7.196,-7.1991,-7.2015,-7.2005,-7.1598,0,0,0,0,0,-7.1198,-7.1302,-7.1346,-7.1503,-7.1535,-7.155,-7.1607,-7.1594,-7.1655,-7.168,-7.1713,-7.1774,-7.1868,-7.1931,-7.202,-7.221,-7.2222,-7.2297,-7.2322,-7.2342,-7.2361,-7.2462,-7.2496,-7.214,-7.214,-7.214,0,0,-7.1293,-7.1337,-7.1404,-7.1527,-7.1572,-7.1678,-7.1572,-7.1689,-7.1766,-7.1697,-7.1846,-7.1872,-7.1938,-7.2112,-7.2189,-7.214,-7.2462,-7.2362,-7.2377,-7.2386,-7.2482,-7.2515,-7.2545,-7.2151,-7.2149,-7.2147,0,0,-7.152,-7.1565,-7.17,-7.1748,-7.1818,-7.1826,-7.1859,-7.1918,-7.1933,-7.2082,-7.2032,-7.2123,-7.2287,-7.2336,-7.2382,-7.2625,-7.2582,-7.2655,-7.2784,-7.2883,-7.2911,-7.2935,-7.3021,-7.3052,-7.2674,-7.2674,-7.2674,0,-7.1629,-7.1788,-7.1774,-7.1895,-7.1949,-7.1892,-7.2028,-7.2074,-7.217,-7.2208,-7.2152,-7.2355,-7.2396,-7.2579,-7.2638,-7.2678,-7.2713,-7.2647,-7.2908,-7.2932,-7.2955,-7.3037,-7.3069,-7.2682,-7.2682,-7.2681,-7.268,0,-7.1917,-7.2028,-7.2129,-7.2223,-7.2289,-7.2417,-7.2421,-7.2489,-7.247,-7.2483,-7.2634,-7.2681,-7.2778,-7.282,-7.2802,-7.3,-7.2967,-7.291,-7.2808,-7.2998,-7.3074,-7.3105,-7.2694,-7.2691,-7.2689,-7.2687,0,0,-7.2218,-7.2302,-7.234,-7.2381,-7.2453,-7.2538,-7.2662,-7.2757,-7.2815,-7.2882,-7.2985,-7.3124,-7.3071,-7.3124,-7.311,-7.3197,-7.3385,-7.3128,-7.3129,-7.3174,-7.3604,-7.3647,-7.3684,-7.3356,-7.3362,-7.3367,-7.3598,0,-7.2448,-7.2667,-7.2657,-7.286,-7.2961,-7.2907,-7.3015,-7.307,-7.3086,-7.3172,-7.3188,-7.3287,-7.321,-7.3241,-7.3324,-7.3345,-7.3471,-7.3328,-7.345,-7.3455,-7.3435,-7.3724,-7.377,-7.3986,-7.3628,-7.3633,-7.3637,0,-7.2747,-7.2825,-7.3039,-7.3094,-7.3136,-7.3234,-7.3319,-7.3404,-7.3464,-7.3469,-7.3527,-7.3499,-7.3622,-7.3518,-7.3686,-7.3589,-7.3638,-7.3655,-7.3663,-7.3674,-7.3557,-7.3742,-7.4055,-7.4087,-7.3684,-7.368,-7.3677,0,-7.2944,-7.3102,-7.325,-7.3287,-7.3356,-7.3425,-7.3457,-7.3511,-7.3569,-7.3643,-7.368,-7.3767,-7.3815,-7.3883,-7.3878,-7.3803,-7.4049,-7.3944,-7.4055,-7.4056,-7.411,-7.4107,-7.4435,-7.4142,-7.4142,-7.4141,-7.4141,0,-7.3203,-7.3335,-7.3339,-7.343,-7.3576,-7.3563,-7.3707,-7.3731,-7.378,-7.3873,-7.3831,-7.3919,-7.3908,-7.3996,-7.3993,-7.4132,-7.4154,-7.4161,-7.4158,-7.4165,-7.4164,-7.4196,-7.4181,-7.415,-7.4148,-7.4146,-7.4145,0,-7.3448,-7.3456,-7.3613,-7.3665,-7.3681,-7.3787,-7.383,-7.3916,-7.3927,-7.4045,-7.4072,-7.4089,-7.4191,-7.4193,-7.4309,-7.4306,-7.4476,-7.4457,-7.4457,-7.4453,-7.4563,-7.4553,-7.4924,-7.4971,-7.4649,-7.4652,-7.4654,0,-7.3612,-7.3713,-7.3776,-7.3835,-7.3872,-7.3969,-7.4027,-7.4017,-7.4079,-7.4155,-7.423,-7.4328,-7.4405,-7.4569,-7.4591,-7.4678,-7.4661,-7.4785,-7.4674,-7.4676,-7.4662,-7.4656,-7.4665,-7.4806,-7.481,-7.4813,-7.4815,0,-7.3903,-7.3901,-7.3988,-7.4076,-7.4147,-7.4215,-7.4279,-7.433,-7.4326,-7.4398,-7.4502,-7.4562,-7.468,-7.4776,-7.4861,-7.4891,-7.4853,-7.485,-7.488,-7.4887,-7.4883,-7.4886,-7.4515,-7.4842,-7.4839,-7.4837,-7.4836,-7.4834,-7.4112,-7.4198,-7.4256,-7.4353,-7.4399,-7.4459,-7.4542,-7.4563,-7.4649,-7.4746,-7.4734,-7.4849,-7.4904,-7.5014,-7.5051,-7.5139,-7.5096,-7.514,-7.5151,-7.5162,-7.5174,-7.4869,-7.5155,-7.5154,-7.5153,-7.5153,-7.5152,0,-7.4399,-7.4433,-7.4523,-7.4613,-7.4689,-7.4647,-7.4714,-7.478,-7.4882,-7.4938,-7.5014,-7.5132,-7.5225,-7.5254,-7.5344,-7.5408,-7.5393,-7.5432,-7.5427,-7.5434,-7.5208,-7.5173,-7.5443,-7.5443,-7.5443,-7.5443,-7.5443,-7.5443,-7.4558,-7.4702,-7.4707,-7.4872,-7.4905,-7.5018,-7.506,-7.5114,-7.5158,-7.5292,-7.5369,-7.5387,-7.5432,-7.5524,-7.5606,-7.5612,-7.5647,-7.5693,-7.5692,-7.548,-7.5451,-7.5423,-7.5389,-7.5701,-7.5702,-7.5911,-7.5913,-7.5915]}]]